Voltar ao catálogo

STARLINK-36191

AtivoComunicaçõesVLEO
NORAD 67023·PAYLOAD·🇺🇸 United States

Lançado Dec 10, 2025 de Vandenberg Space Force Base

Loading…

Próximas Passagens (próximas 24 horas)

TLE

AtualizadoSource: CelesTrak SupGP

Época: Sep 15, 2026, 03:25 UTC

1 67023C 25293W   26258.14284722  .00057207  00000+0  47932-2 0  2587
2 67023  70.0021 336.9275 0003327 267.4564  45.5290 14.98309452    15

Acompanhe STARLINK-36191 em tempo real com AllMySat

Download on the App Store